Weather History for Pompano Beach, FL

Change the Weather History Date:

Tuesday, May 28, 2013

  Actual Average Record
Temperature  
Mean Temperature 78 °F -  
Max Temperature 82 °F 88 °F 94 °F (1967)
Min Temperature 75 °F 71 °F 62 °F (1951)
Cooling Degree Days 14    
Growing Degree Days 28 (Base 50)    
Moisture  
Dew Point 73 °F    
Average Humidity 84    
Maximum Humidity 94    
Minimum Humidity 74    
Precipitation  
Precipitation 0.44 in - - ()
Sea Level Pressure  
Sea Level Pressure 30.08 in    
Wind  
Wind Speed 16 mph (East)    
Max Wind Speed 22 mph    
Max Gust Speed 30 mph    
Visibility 9 miles    
Events Rain    
Averages and records for this station are not official NWS values.
T = Trace of Precipitation, MM = Missing Value Source: NWS Daily Summary

Daily Weather History Graph

Daily Weather History Graph

Search for Another Location

Airport:

Trip Planner

Search our weather history database for the weather conditions in past years. The results will help you decide how hot, cold, wet, or windy it might be!

Date:

Astronomy

May. 28, 2013 Rise Set
Actual Time 6:28 AM EDT 8:06 PM EDT
Civil Twilight 6:03 AM EDT 8:32 PM EDT
Nautical Twilight 5:32 AM EDT 9:03 PM EDT
Astronomical Twilight 5:00 AM EDT 9:35 PM EDT
Moon 11:41 PM EDT (5/28) 10:06 AM EDT (5/28)
Length of Visible Light 14h 29m
Length of Day
13h 38m
Waning Gibbous, 83% of the Moon is Illuminated
May 28
Waning Gibbous
May 31
Last Quarter
Jun 8
New
Jun 16
First Quarter
Jun 23
Full

Hourly Weather History & Observations

Time (EDT) Temp. Heat Index Dew Point Humidity Pressure Visibility Wind Dir Wind Speed Gust Speed Precip Events Conditions
12:53 AM 78.1 °F - 73.0 °F 84% 30.12 in 10.0 mi East 18.4 mph 26.5 mph N/A   Mostly Cloudy
1:19 AM 78.8 °F - 73.4 °F 83% 30.10 in 10.0 mi East 16.1 mph 23.0 mph 0.00 in   Mostly Cloudy
1:50 AM 78.8 °F - 73.4 °F 83% 30.09 in 10.0 mi East 17.3 mph - 0.00 in   Mostly Cloudy
1:53 AM 78.1 °F - 73.0 °F 84% 30.09 in 10.0 mi East 16.1 mph - 0.00 in   Mostly Cloudy
2:53 AM 77.0 °F - 71.1 °F 82% 30.08 in 10.0 mi East 11.5 mph - N/A   Scattered Clouds
3:40 AM 75.2 °F - 73.4 °F 94% 30.06 in 1.8 mi East 9.2 mph 25.3 mph 0.29 in Rain Light Rain
3:44 AM 75.2 °F - 73.4 °F 94% 30.06 in 2.5 mi ENE 16.1 mph 25.3 mph 0.35 in Rain Heavy Rain
3:51 AM 75.2 °F - 73.4 °F 94% 30.06 in 6.0 mi East 18.4 mph 26.5 mph 0.35 in Rain Light Rain
3:53 AM 75.9 °F - 73.0 °F 91% 30.06 in 9.0 mi East 21.9 mph 26.5 mph 0.35 in Rain Light Rain
4:03 AM 77.0 °F - 73.4 °F 89% 30.06 in 10.0 mi East 17.3 mph - 0.00 in   Mostly Cloudy
4:53 AM 77.0 °F - 73.9 °F 90% 30.05 in 10.0 mi East 13.8 mph 24.2 mph 0.01 in   Overcast
5:53 AM 78.1 °F - 72.0 °F 81% 30.06 in 10.0 mi East 18.4 mph 27.6 mph N/A   Scattered Clouds
6:31 AM 78.8 °F - 73.4 °F 83% 30.06 in 10.0 mi East 19.6 mph 25.3 mph N/A   Mostly Cloudy
6:53 AM 79.0 °F - 73.0 °F 82% 30.07 in 10.0 mi East 17.3 mph 26.5 mph N/A   Mostly Cloudy
7:53 AM 79.0 °F - 73.0 °F 82% 30.07 in 10.0 mi East 19.6 mph 26.5 mph N/A   Mostly Cloudy
8:02 AM 78.8 °F - 73.4 °F 83% 30.07 in 10.0 mi East 18.4 mph 24.2 mph N/A   Mostly Cloudy
8:16 AM 78.8 °F - 73.4 °F 83% 30.07 in 10.0 mi East 19.6 mph 28.8 mph N/A   Mostly Cloudy
8:51 AM 78.8 °F - 73.4 °F 83% 30.10 in 10.0 mi ESE 19.6 mph 25.3 mph N/A   Mostly Cloudy
8:53 AM 78.1 °F - 73.0 °F 84% 30.10 in 10.0 mi ESE 18.4 mph 25.3 mph N/A   Mostly Cloudy
9:19 AM 75.2 °F - 73.4 °F 94% 30.11 in 2.5 mi ESE 17.3 mph 27.6 mph 0.03 in Rain Rain
9:30 AM 75.2 °F - 73.4 °F 94% 30.11 in 6.0 mi ESE 12.7 mph 20.7 mph 0.04 in Rain Light Rain
9:53 AM 75.9 °F - 73.9 °F 94% 30.11 in 4.0 mi ESE 21.9 mph 29.9 mph 0.07 in Rain Rain
10:53 AM 77.0 °F - 73.0 °F 88% 30.11 in 10.0 mi SE 15.0 mph - 0.01 in   Partly Cloudy
11:53 AM 79.0 °F - 73.0 °F 82% 30.11 in 10.0 mi ESE 15.0 mph - N/A   Clear
12:53 PM 80.1 °F 84.2 °F 73.0 °F 79% 30.10 in 10.0 mi ESE 15.0 mph - N/A   Scattered Clouds
1:53 PM 82.0 °F 87.4 °F 73.0 °F 74% 30.11 in 10.0 mi ESE 15.0 mph - 0.00 in   Scattered Clouds
2:53 PM 81.0 °F 85.8 °F 73.0 °F 77% 30.09 in 10.0 mi East 12.7 mph - N/A   Partly Cloudy
3:53 PM 82.0 °F 87.4 °F 73.0 °F 74% 30.08 in 10.0 mi East 11.5 mph 21.9 mph N/A   Partly Cloudy
4:11 PM 80.6 °F 85.4 °F 73.4 °F 79% 30.06 in 10.0 mi East 12.7 mph 21.9 mph N/A   Mostly Cloudy
4:22 PM 78.8 °F - 71.6 °F 78% 30.06 in 10.0 mi East 13.8 mph 21.9 mph N/A   Scattered Clouds
4:53 PM 77.0 °F - 73.0 °F 88% 30.06 in 10.0 mi East 12.7 mph 24.2 mph N/A   Scattered Clouds
5:53 PM 79.0 °F - 72.0 °F 79% 30.06 in 10.0 mi ESE 12.7 mph 20.7 mph 0.00 in   Mostly Cloudy
6:53 PM 79.0 °F - 73.0 °F 82% 30.06 in 10.0 mi ESE 9.2 mph - 0.00 in   Mostly Cloudy
7:02 PM 78.8 °F - 73.4 °F 83% 30.06 in 10.0 mi ESE 11.5 mph - N/A   Scattered Clouds
7:53 PM 78.1 °F - 73.0 °F 84% 30.08 in 10.0 mi East 11.5 mph - N/A   Clear
8:53 PM 78.1 °F - 72.0 °F 81% 30.08 in 10.0 mi East 15.0 mph - 0.00 in   Clear
9:53 PM 78.1 °F - 73.0 °F 84% 30.08 in 10.0 mi ESE 17.3 mph 23.0 mph N/A   Scattered Clouds
10:53 PM 78.1 °F - 72.0 °F 81% 30.08 in 10.0 mi ESE 13.8 mph - N/A   Partly Cloudy
11:53 PM 78.1 °F - 72.0 °F 81% 30.09 in 10.0 mi East 15.0 mph 20.7 mph N/A   Partly Cloudy